Location: Kellogg
(38.0159°N, 90.0546°W)
Time: 00:40:07
(UTC+00:00)

Courier 1B Rocket - Pass Details

Date: 20 September 2024
Orbit: 920 x 1201 km, 28.3° (Epoch: 14 October)

Event Time Altitude Azimuth Distance (km) Brightness Sun altitude
Rises 00:47:50 0° 261° (W) 3,753 9.7 -10.0°
Reaches altitude 10° 00:51:13 10° 246° (WSW) 2,851 8.4 -10.7°
Maximum altitude 00:56:06 20° 201° (SSW) 2,252 7.0 -11.6°
Drops below altitude 10° 01:01:13 10° 156° (SSE) 2,994 7.2 -12.6°
Enters shadow 01:03:26 - 146° (SE) 3,577 7.5 -13.1°
